Regional Weather Roundup
Issued by NWS Northern Indiana

Home | Current Version | Previous Version | Text Only | Print | Product List | Glossary Off
Versions: 1 2 3 4 5 6 7 8 9 10 11 12 13 14 15 16 17 18 19 20 21 22 23 24 25 26 27 28 29 30 31 32 33 34 35 36 37 38 39 40 41 42 43 44 45 46 47 48 49 50

000
ASUS43 KIWX 250010
RWRIWX

KIWX WEATHER ROUNDUP
NATIONAL WEATHER SERVICE NORTHERN INDIANA
800 PM EDT FRI MAR 24 2017

NOTE: "FAIR" INDICATES FEW OR NO CLOUDS BELOW 12,000 FEET WITH NO
SIGNIFICANT WEATHER AND/OR OBSTRUCTIONS TO VISIBILITY.

* THESE STATIONS ARE NOT UNDER NWS QUALITY CONTROL. THEY ALSO MAY NOT
  REPORT WEATHER SUCH AS PRECIPITATION OR FOG.

INZ001>027-250100-
NORTHERN INDIANA

CITY           SKY/WX    TMP DP  RH WIND       PRES   REMARKS
GARY*          CLOUDY    45  37  76 NW16G31   30.00R
VALPARAISO     PTCLDY    71  55  56 SW16G23   29.97R
6HR MIN TEMP:  71; 6HR MAX TEMP:  81;

MICHIGAN CITY* CLOUDY    70  54  56 SW10G17   29.96R
LAPORTE*       MOCLDY    69  54  58 SW17      29.97R
6HR MIN TEMP:  69; 6HR MAX TEMP:  78;

KNOX*          PTCLDY    68  32  26 SW17G26   29.97R
SOUTH BEND     MOCLDY    70  54  56 SW18      29.97R
6HR MIN TEMP:  70; 6HR MAX TEMP:  78;

ELKHART*       CLOUDY    72  54  53 SW14      29.97R
GOSHEN         CLEAR     68  53  58 SW17      29.99R
6HR MIN TEMP:  68; 6HR MAX TEMP:  76;

MONTICELLO*    CLOUDY    68  54  60 SW18      30.00R
6HR MIN TEMP:  68; 6HR MAX TEMP:  76;

LOGANSPORT*    CLOUDY    66  54  63 SW12      30.03R
ROCHESTER*     CLEAR     70  54  56 S13G18    30.01R
WARSAW*        CLEAR     68  54  60 SW9       30.01R
ANGOLA*        CLEAR     70  55  60 SW18      29.99R
FORT WAYNE     MOCLDY    68  53  58 SW15      30.04R
6HR MIN TEMP:  68; 6HR MAX TEMP:  76;

HUNTINGTON*    CLOUDY    68  53  58 SW9       30.03R
6HR MIN TEMP:  68; 6HR MAX TEMP:  75;

PERU/GRISSOM   CLEAR     67  54  63 SW15      30.01S
6HR MIN TEMP:  67; 6HR MAX TEMP:  76;

MARION*        PTCLDY    66  53  61 SW10      30.05R
6HR MIN TEMP:  26; 6HR MAX TEMP:  75;


$$
INZ028>050-250100-
CENTRAL INDIANA

CITY           SKY/WX    TMP DP  RH WIND       PRES   REMARKS
LAFAYETTE      PTCLDY    69  55  60 SW15G25   30.01S
6HR MIN TEMP:  69; 6HR MAX TEMP:  75;

KOKOMO*        CLEAR     67  54  63 SW13      30.04S
6HR MIN TEMP:  67; 6HR MAX TEMP:  75;

MUNCIE*        PTCLDY    71  52  50 SW12      30.05R
6HR MIN TEMP:  71; 6HR MAX TEMP:  77;

INDIANAPOLIS   CLOUDY    69  52  54 SW17G25   30.06R
6HR MIN TEMP:  69; 6HR MAX TEMP:  75;


$$
MIZ043>046-050>051-056>058-064>065-071>073-077>080-250100-
SOUTHWEST LOWER MICHIGAN

CITY           SKY/WX    TMP DP  RH WIND       PRES   REMARKS
BATTLE CREEK   CLOUDY    68  56  65 SW15      29.95R
6HR MIN TEMP:  67; 6HR MAX TEMP:  78; 6HR PCP: TRACE;

BENTON HARBOR  CLOUDY    51  41  68 N8G17     29.98R
6HR MIN TEMP:  51; 6HR MAX TEMP:  79;

COLDWATER*     PTCLDY    69  53  55 SW10G21   29.98R
6HR MIN TEMP:  69; 6HR MAX TEMP:  76;

HILLSDALE*     PTCLDY    68  54  60 SW15G22   29.98R
HOLLAND        CLOUDY    54  43  66 N9        29.97R
6HR MIN TEMP:  52; 6HR MAX TEMP:  68;

GRAND RAPIDS   CLOUDY    62  48  60 N15G24    29.96R
6HR MIN TEMP:  62; 6HR MAX TEMP:  71;

KALAMAZOO      MOCLDY    72  52  49 SW18G24   29.95R
6HR MIN TEMP:  72; 6HR MAX TEMP:  79; 6HR PCP: TRACE;

STURGIS*       MOCLDY    67  56  66 SW20G26   29.97R
6HR MIN TEMP:  67; 6HR MAX TEMP:  76;

THREE RIVERS*  FAIR      71  53  53 SW14G23   29.96R
6HR MIN TEMP:  71; 6HR MAX TEMP:  77;


$$
OHZ001>008-015>018-024>025-250100-
NORTHWEST OHIO

CITY           SKY/WX    TMP DP  RH WIND       PRES   REMARKS
WAUSEON*       FAIR      70  54  56 SW15G25   30.00R
DEFIANCE       CLEAR     69  53  56 SW10      30.02R
6HR MIN TEMP:  69; 6HR MAX TEMP:  75;

FINDLAY        CLEAR     70  53  54 SW16      30.02R
6HR MIN TEMP:  69; 6HR MAX TEMP:  77;

TOLEDO EXPRESS CLEAR     71  54  54 SW15      30.00R
6HR MIN TEMP:  69; 6HR MAX TEMP:  76;

TOLEDO METCALF PTCLDY    69  55  60 SW9       30.01R
6HR MIN TEMP:  69; 6HR MAX TEMP:  76;

LIMA           CLEAR     69  53  56 SW15G23   30.05R
6HR MIN TEMP:  69; 6HR MAX TEMP:  75;


$$
AND FOR LAKE MICHIGAN COASTAL AND OPEN LAKE BUOY OBSERVATIONS

STATION/POSITION TEMP    WIND        PRES    VSBY  WAVE
                 AIR SEA DIR/SP/G                  HT/PER
                 (F)     (DEG/KT/KT) (MB)    (MI)  (FT/S)
CALUMET HARBOR           340/ 19/ 26 1015.4R
MICHIGAN CITY     72     200/ 19/ 21   N/A
BURNS HARBOR      42     340/ 16/ 23 1015.2R

$$
&&




USA.gov is the U.S. government's official web portal to all federal, state and local government web resources and services.